M I D A S
Marine Information and Data Acquisition System
Tripno 1715 of the Zeeleeuw from 2009-06-24 06:47:07 to 2009-06-24 15:11:18
Back to CruiseResearch ActivitiesStationsMapUnderway DataData graphs

EquipmentUnitsComments
TimeDGPSUTC
LatitudeDGPSDM.mWGS84
LongitudeDGPSDM.mWGS84
SpeedMeteo Stationm/sRelative wind speed
DirectionMeteo StationdegRelative wind direction
TemperatureMeteo Stationdeg CelciusAir temperature
PressureMeteo StationPaAtmospheric pressure
HumidityMeteo Station%Relative humidity
Missing or incorrect values are displayed as -999
Metereological data collected by the RV Zeeleeuw from 2009-06-24 06:44:21 to 2009-06-24 15:18:51
                                                                                    Next 1000 lines
Time Latitude Longitude Speed Direction Temperature Pressure Humidity
2009-06-24 06:44:31 51°13.661 2°55.956 3.6 26 17.2 102270 65
2009-06-24 06:44:35 51°13.662 2°55.954 2.7 39 17.2 102270 65
2009-06-24 06:44:40 51°13.663 2°55.95 2.6 27 17.2 102270 64
2009-06-24 06:44:46 51°13.664 2°55.946 2.4 241 17.2 102270 64
2009-06-24 06:44:50 51°13.666 2°55.942 2.1 23 17.2 102270 65
2009-06-24 06:44:56 51°13.668 2°55.936 1.9 238 17.2 102270 65
2009-06-24 06:45:02 51°13.671 2°55.929 1.8 29 17.2 102270 65
2009-06-24 06:45:07 51°13.673 2°55.923 1.7 325 17.2 102270 65
2009-06-24 06:45:12 51°13.675 2°55.917 2 19 17.2 102270 65
2009-06-24 06:45:18 51°13.678 2°55.91 2.2 324 17.2 102270 65
2009-06-24 06:45:22 51°13.679 2°55.905 3 320 17.2 102270 64
2009-06-24 06:45:27 51°13.682 2°55.9 2.3 240 17.2 102270 64
2009-06-24 06:45:32 51°13.683 2°55.894 2.2 256 17.2 102270 65
2009-06-24 06:45:38 51°13.685 2°55.887 2.2 32 17.2 102270 65
2009-06-24 06:45:42 51°13.686 2°55.882 1.8 25 17.2 102270 65
2009-06-24 06:45:47 51°13.688 2°55.876 0.9 261 17.2 102270 65
2009-06-24 06:45:52 51°13.689 2°55.868 0.8 248 17.2 102270 65
2009-06-24 06:45:57 51°13.69 2°55.861 3.2 36 17.2 102270 65
2009-06-24 06:46:02 51°13.691 2°55.853 2.8 28 17.2 102270 65
2009-06-24 06:46:07 51°13.692 2°55.844 2.7 32 17.2 102270 65
2009-06-24 06:46:12 51°13.693 2°55.835 2.4 26 17.2 102270 65
2009-06-24 06:46:17 51°13.694 2°55.826 2.2 337 17.2 102270 65
2009-06-24 06:46:22 51°13.694 2°55.816 1.5 338 17.2 102270 65
2009-06-24 06:46:27 51°13.694 2°55.807 0.7 348 17.2 102270 65
2009-06-24 06:46:32 51°13.695 2°55.798 0.9 315 17.2 102270 64
2009-06-24 06:46:37 51°13.695 2°55.79 1.2 38 17.2 102270 64
2009-06-24 06:46:42 51°13.694 2°55.782 1 26 17.2 102270 65
2009-06-24 06:46:47 51°13.694 2°55.775 1.9 338 17.2 102270 65
2009-06-24 06:46:52 51°13.694 2°55.768 1.9 349 17.2 102270 65
2009-06-24 06:46:57 51°13.694 2°55.762 1.9 30 17.2 102270 65
2009-06-24 06:47:02 51°13.694 2°55.756 2.6 342 17.3 102270 65
2009-06-24 06:47:07 51°13.694 2°55.752 2.8 346 17.3 102270 65
2009-06-24 06:47:11 51°13.693 2°55.749 3.4 347 17.3 102270 64
2009-06-24 06:47:16 51°13.693 2°55.746 2.7 338 17.3 102270 64
2009-06-24 06:47:21 51°13.694 2°55.743 2.7 341 17.3 102270 65
2009-06-24 06:47:26 51°13.694 2°55.742 2.9 315 17.3 102270 65
2009-06-24 06:47:31 51°13.694 2°55.741 2.8 29 17.3 102270 65
2009-06-24 06:47:36 51°13.695 2°55.742 4.2 337 17.3 102270 65
2009-06-24 06:47:41 51°13.697 2°55.743 4.3 339 17.3 102270 65
2009-06-24 06:47:46 51°13.699 2°55.744 3.3 350 17.3 102270 65
2009-06-24 06:47:50 51°13.701 2°55.746 3.8 352 17.3 102270 65
2009-06-24 06:47:55 51°13.705 2°55.748 3.1 358 17.3 102270 65
2009-06-24 06:48:00 51°13.71 2°55.749 3.5 358 17.3 102270 65
2009-06-24 06:48:05 51°13.714 2°55.749 2.9 11 17.3 102270 65
2009-06-24 06:48:10 51°13.718 2°55.749 2.9 7 17.2 102270 63
2009-06-24 06:48:14 51°13.721 2°55.748 2.8 350 17.2 102270 63
2009-06-24 06:48:19 51°13.725 2°55.748 3.3 348 17.2 102270 63
2009-06-24 06:48:24 51°13.729 2°55.746 3.3 340 17.2 102270 63
2009-06-24 06:48:29 51°13.733 2°55.744 3.3 356 17.2 102270 64
2009-06-24 06:48:34 51°13.737 2°55.741 2 7 17.2 102270 64
2009-06-24 06:48:39 51°13.742 2°55.738 1.7 6 17.1 102260 64
2009-06-24 06:48:43 51°13.745 2°55.734 1.8 35 17.1 102260 64
2009-06-24 06:48:49 51°13.749 2°55.728 1.9 5 17.1 102270 65
2009-06-24 06:48:54 51°13.753 2°55.724 4.2 20 17.1 102270 65
2009-06-24 06:48:59 51°13.757 2°55.718 3.3 20 17.1 102270 65
2009-06-24 06:49:03 51°13.76 2°55.714 4.2 22 17.1 102270 65
2009-06-24 06:49:09 51°13.764 2°55.707 2.6 24 17.1 102270 65
2009-06-24 06:49:14 51°13.768 2°55.701 3.3 8 17.1 102270 65
2009-06-24 06:49:19 51°13.772 2°55.695 3.1 18 17.1 102260 66
2009-06-24 06:49:23 51°13.775 2°55.691 3.5 20 17.1 102260 66
2009-06-24 06:49:29 51°13.781 2°55.684 3.1 14 17.1 102270 66
2009-06-24 06:49:34 51°13.785 2°55.679 2.5 17 17.1 102270 66
2009-06-24 06:49:39 51°13.79 2°55.674 2.7 36 17 102270 66
2009-06-24 06:49:43 51°13.793 2°55.67 1.7 23 17 102270 66
2009-06-24 06:49:49 51°13.799 2°55.664 1.9 338 17 102270 65
2009-06-24 06:49:54 51°13.805 2°55.659 3.1 339 17 102270 65
2009-06-24 06:49:59 51°13.81 2°55.654 3.1 349 17 102270 66
2009-06-24 06:50:03 51°13.815 2°55.65 2.2 349 17 102270 66
2009-06-24 06:50:09 51°13.822 2°55.645 1.4 -999 17 102270 65
2009-06-24 06:50:14 51°13.828 2°55.641 1.2 360 17 102270 65
2009-06-24 06:50:19 51°13.834 2°55.639 1.8 338 17 102270 66
2009-06-24 06:50:23 51°13.839 2°55.637 2.9 351 17 102270 66
2009-06-24 06:50:29 51°13.847 2°55.636 2.7 5 17 102270 67
2009-06-24 06:50:34 51°13.852 2°55.636 3.3 344 17 102270 67
2009-06-24 06:50:39 51°13.858 2°55.637 2.7 350 17 102270 67
2009-06-24 06:50:44 51°13.863 2°55.638 4.9 354 17 102270 67
2009-06-24 06:50:49 51°13.869 2°55.64 4.3 353 17 102270 66
2009-06-24 06:50:54 51°13.874 2°55.643 4.1 347 17 102270 66
2009-06-24 06:50:58 51°13.878 2°55.645 4.9 350 16.9 102270 66
2009-06-24 06:51:04 51°13.883 2°55.648 3.8 352 16.9 102270 66
2009-06-24 06:51:08 51°13.887 2°55.651 6.1 354 17 102270 66
2009-06-24 06:51:14 51°13.892 2°55.654 5.2 2 17 102270 66
2009-06-24 06:51:19 51°13.896 2°55.656 5.4 3 16.9 102270 66
2009-06-24 06:51:23 51°13.899 2°55.658 5.1 8 16.9 102270 66
2009-06-24 06:51:29 51°13.905 2°55.66 6.7 7 16.9 102270 66
2009-06-24 06:51:34 51°13.909 2°55.661 5.4 11 16.9 102270 66
2009-06-24 06:51:39 51°13.913 2°55.662 3.9 12 16.9 102260 66
2009-06-24 06:51:43 51°13.915 2°55.662 3.2 5 16.9 102260 66
2009-06-24 06:51:49 51°13.92 2°55.663 3.9 11 16.9 102260 66
2009-06-24 06:51:54 51°13.923 2°55.663 5.8 356 16.9 102260 66
2009-06-24 06:51:59 51°13.926 2°55.663 5.2 359 16.8 102260 65
2009-06-24 06:52:03 51°13.928 2°55.663 3.8 7 16.8 102260 65
2009-06-24 06:52:09 51°13.931 2°55.663 5.8 359 16.8 102260 66
2009-06-24 06:52:14 51°13.934 2°55.662 4.8 7 16.8 102260 66
2009-06-24 06:52:19 51°13.936 2°55.662 3.7 9 16.8 102270 67
2009-06-24 06:52:23 51°13.937 2°55.662 4.6 10 16.8 102270 67
2009-06-24 06:52:29 51°13.94 2°55.661 4.4 10 16.8 102260 66
2009-06-24 06:52:34 51°13.941 2°55.66 3.7 21 16.8 102260 66
2009-06-24 06:52:39 51°13.943 2°55.659 4 20 16.8 102260 67
2009-06-24 06:52:43 51°13.944 2°55.658 3.6 14 16.8 102260 67
2009-06-24 06:52:49 51°13.946 2°55.657 4.4 12 16.8 102260 67
2009-06-24 06:52:54 51°13.948 2°55.656 2.9 18 16.8 102260 67
2009-06-24 06:52:59 51°13.949 2°55.654 3.3 24 16.8 102260 66
2009-06-24 06:53:04 51°13.95 2°55.653 3.8 34 16.8 102260 66
2009-06-24 06:53:09 51°13.952 2°55.652 4.7 37 16.8 102270 66
2009-06-24 06:53:14 51°13.953 2°55.651 5 26 16.8 102270 66
2009-06-24 06:53:19 51°13.954 2°55.65 4.1 23 16.8 102270 67
2009-06-24 06:53:24 51°13.956 2°55.649 3.3 22 16.8 102270 67
2009-06-24 06:53:29 51°13.957 2°55.648 3.3 22 16.8 102260 66
2009-06-24 06:53:34 51°13.958 2°55.647 3.3 25 16.8 102260 66
2009-06-24 06:53:39 51°13.959 2°55.646 4.2 33 16.8 102270 67
2009-06-24 06:53:43 51°13.96 2°55.645 4.4 31 16.8 102270 67
2009-06-24 06:53:49 51°13.961 2°55.644 4.8 26 16.8 102270 66
2009-06-24 06:53:54 51°13.962 2°55.643 4.1 28 16.8 102270 66
2009-06-24 06:53:59 51°13.963 2°55.642 4 32 16.8 102270 66
2009-06-24 06:54:03 51°13.964 2°55.641 3.8 29 16.8 102270 66
2009-06-24 06:54:09 51°13.965 2°55.64 4.2 35 16.8 102270 67
2009-06-24 06:54:14 51°13.966 2°55.639 5.1 32 16.8 102270 67
2009-06-24 06:54:19 51°13.966 2°55.638 5.3 33 16.8 102270 66
2009-06-24 06:54:23 51°13.967 2°55.637 4.3 31 16.8 102270 66
2009-06-24 06:54:29 51°13.967 2°55.637 3.3 27 16.8 102270 66
2009-06-24 06:54:34 51°13.967 2°55.637 3.7 26 16.8 102270 66
2009-06-24 06:54:39 51°13.967 2°55.636 3.3 31 16.8 102260 66
2009-06-24 06:54:43 51°13.966 2°55.637 3.7 27 16.8 102260 66
2009-06-24 06:54:49 51°13.965 2°55.637 4.1 28 16.8 102270 66
2009-06-24 06:54:54 51°13.965 2°55.637 3.9 35 16.8 102270 66
2009-06-24 06:54:59 51°13.964 2°55.637 3.3 30 16.8 102270 67
2009-06-24 06:55:04 51°13.963 2°55.637 3.4 35 16.8 102270 67
2009-06-24 06:55:09 51°13.963 2°55.637 3 34 16.8 102270 67
2009-06-24 06:55:14 51°13.962 2°55.637 3 26 16.8 102270 67
2009-06-24 06:55:19 51°13.962 2°55.638 3.3 29 16.8 102270 67
2009-06-24 06:55:23 51°13.961 2°55.638 4.5 20 16.8 102270 67
2009-06-24 06:55:29 51°13.961 2°55.638 3.8 18 16.9 102270 67
2009-06-24 06:55:34 51°13.96 2°55.638 4.4 32 16.9 102270 67
2009-06-24 06:55:39 51°13.96 2°55.638 5 37 16.8 102270 66
2009-06-24 06:55:43 51°13.959 2°55.638 4 31 16.8 102270 66
2009-06-24 06:55:49 51°13.959 2°55.638 4 25 16.9 102270 67
2009-06-24 06:55:54 51°13.958 2°55.638 4.7 26 16.9 102270 67
2009-06-24 06:55:59 51°13.958 2°55.638 4.5 27 16.9 102270 67
2009-06-24 06:56:03 51°13.957 2°55.638 4.1 35 16.9 102270 67
2009-06-24 06:56:09 51°13.957 2°55.638 3.9 32 16.9 102270 66
2009-06-24 06:56:14 51°13.956 2°55.638 3.5 22 16.9 102270 66
2009-06-24 06:56:19 51°13.956 2°55.638 3.1 30 16.9 102270 67
2009-06-24 06:56:23 51°13.955 2°55.638 2.9 21 16.9 102270 67
2009-06-24 06:56:29 51°13.955 2°55.638 2.7 15 16.9 102270 67
2009-06-24 06:56:34 51°13.954 2°55.638 3 28 16.9 102270 67
2009-06-24 06:56:38 51°13.954 2°55.638 3.1 27 16.9 102270 66
2009-06-24 06:56:44 51°13.954 2°55.638 4 35 16.9 102270 66
2009-06-24 06:56:48 51°13.953 2°55.638 3.6 31 16.9 102270 66
2009-06-24 06:56:54 51°13.953 2°55.638 4.8 26 16.9 102270 66
2009-06-24 06:56:59 51°13.953 2°55.639 4.6 33 16.9 102270 66
2009-06-24 06:57:04 51°13.952 2°55.639 3.3 35 16.9 102270 66
2009-06-24 06:57:09 51°13.952 2°55.639 4 39 16.9 102270 66
2009-06-24 06:57:14 51°13.952 2°55.639 4.3 31 16.9 102270 66
2009-06-24 06:57:19 51°13.951 2°55.639 3.8 25 16.9 102270 66
2009-06-24 06:57:23 51°13.951 2°55.639 2.8 24 16.9 102270 66
2009-06-24 06:57:29 51°13.951 2°55.639 3.2 37 16.9 102270 66
2009-06-24 06:57:34 51°13.95 2°55.639 4.9 32 16.9 102270 66
2009-06-24 06:57:39 51°13.95 2°55.64 5.5 29 17 102270 67
2009-06-24 06:57:43 51°13.95 2°55.64 3.9 28 17 102270 67
2009-06-24 06:57:49 51°13.95 2°55.64 4 29 17 102270 66
2009-06-24 06:57:54 51°13.95 2°55.64 4.3 24 17 102270 66
2009-06-24 06:57:59 51°13.95 2°55.64 3.9 20 16.9 102270 66
2009-06-24 06:58:03 51°13.949 2°55.64 3.5 15 16.9 102270 66
2009-06-24 06:58:09 51°13.949 2°55.64 3.8 15 16.9 102270 66
2009-06-24 06:58:14 51°13.949 2°55.64 4.2 13 16.9 102270 66
2009-06-24 06:58:19 51°13.949 2°55.64 4.2 17 17 102260 66
2009-06-24 06:58:24 51°13.949 2°55.64 4.5 26 17 102260 66
2009-06-24 06:58:28 51°13.949 2°55.64 5.7 21 17 102270 66
2009-06-24 06:58:34 51°13.949 2°55.639 5.1 36 17 102270 66
2009-06-24 06:58:38 51°13.949 2°55.639 4.3 33 17 102260 66
2009-06-24 06:58:43 51°13.949 2°55.639 4.6 31 17 102260 66
2009-06-24 06:58:48 51°13.949 2°55.638 4 28 17 102260 66
2009-06-24 06:58:54 51°13.949 2°55.638 4.2 27 17 102260 66
2009-06-24 06:58:59 51°13.95 2°55.637 4.2 29 17 102260 66
2009-06-24 06:59:03 51°13.95 2°55.637 5.2 29 17 102260 66
2009-06-24 06:59:08 51°13.95 2°55.636 4 25 17 102270 66
2009-06-24 06:59:14 51°13.95 2°55.636 4.3 32 17 102270 66
2009-06-24 06:59:19 51°13.951 2°55.635 3.9 33 17 102260 66
2009-06-24 06:59:23 51°13.951 2°55.635 4.6 33 17 102260 66
2009-06-24 06:59:27 51°13.951 2°55.635 4.3 32 17 102260 66
2009-06-24 06:59:33 51°13.951 2°55.635 4.1 35 17 102260 66
2009-06-24 06:59:39 51°13.952 2°55.634 4.7 29 17 102260 66
2009-06-24 06:59:43 51°13.952 2°55.633 3.6 27 17 102260 66
2009-06-24 06:59:47 51°13.952 2°55.633 4 29 17 102260 66
2009-06-24 06:59:53 51°13.953 2°55.632 3.8 38 17 102260 66
2009-06-24 06:59:58 51°13.954 2°55.63 4.5 37 17 102260 66
2009-06-24 07:00:03 51°13.956 2°55.629 3.8 34 17 102260 66
2009-06-24 07:00:08 51°13.957 2°55.628 4.2 32 17 102260 66
2009-06-24 07:00:13 51°13.959 2°55.626 4.6 33 17 102260 66
2009-06-24 07:00:18 51°13.961 2°55.624 3.6 28 17 102260 66
2009-06-24 07:00:23 51°13.963 2°55.622 2.8 22 17 102260 66
2009-06-24 07:00:29 51°13.965 2°55.62 2.7 21 17 102270 65
2009-06-24 07:00:34 51°13.968 2°55.617 3.2 16 17 102270 65
2009-06-24 07:00:38 51°13.97 2°55.615 3 12 17 102260 65
2009-06-24 07:00:43 51°13.973 2°55.612 2.5 12 17 102260 65
2009-06-24 07:00:49 51°13.976 2°55.608 2.5 14 17 102270 66
2009-06-24 07:00:54 51°13.98 2°55.605 2.7 26 17 102270 66
2009-06-24 07:00:59 51°13.983 2°55.6 3.1 36 17 102270 66
2009-06-24 07:01:03 51°13.986 2°55.597 2.5 26 17 102270 66
2009-06-24 07:01:09 51°13.992 2°55.59 3 19 17 102260 66
2009-06-24 07:01:14 51°13.997 2°55.583 3.5 11 17 102260 66
2009-06-24 07:01:18 51°14.001 2°55.577 3.4 14 17 102270 66
2009-06-24 07:01:23 51°14.007 2°55.569 2.1 5 17 102270 66
2009-06-24 07:01:28 51°14.014 2°55.561 3.2 -999 17 102260 67
2009-06-24 07:01:34 51°14.022 2°55.551 3.7 352 17 102260 67
2009-06-24 07:01:38 51°14.028 2°55.544 3.4 350 17 102260 66
2009-06-24 07:01:43 51°14.035 2°55.534 4.1 346 17 102260 66
2009-06-24 07:01:48 51°14.043 2°55.524 5 347 17 102260 67
2009-06-24 07:01:53 51°14.051 2°55.515 6 350 17 102260 67
2009-06-24 07:01:58 51°14.059 2°55.505 5.6 355 17 102270 66
2009-06-24 07:02:03 51°14.067 2°55.495 5.3 350 17 102270 66
2009-06-24 07:02:08 51°14.076 2°55.484 5.4 348 17 102260 67
2009-06-24 07:02:14 51°14.086 2°55.472 3.5 344 17 102260 67
2009-06-24 07:02:18 51°14.093 2°55.464 3.4 346 17 102260 66
2009-06-24 07:02:23 51°14.102 2°55.453 4.8 355 17 102260 66
2009-06-24 07:02:28 51°14.11 2°55.443 5.2 355 17 102260 65
2009-06-24 07:02:34 51°14.121 2°55.43 6.1 348 17 102260 65
2009-06-24 07:02:38 51°14.128 2°55.422 5.8 353 17 102260 67
2009-06-24 07:02:43 51°14.137 2°55.412 4.3 3 17 102260 67
2009-06-24 07:02:48 51°14.147 2°55.401 4 358 17 102260 66
2009-06-24 07:02:54 51°14.157 2°55.389 4.2 355 17 102260 66
2009-06-24 07:02:58 51°14.164 2°55.381 4.4 358 17 102260 66
2009-06-24 07:03:03 51°14.172 2°55.372 7.8 8 17 102260 66
2009-06-24 07:03:08 51°14.18 2°55.362 7.4 9 17 102260 67
2009-06-24 07:03:13 51°14.188 2°55.353 6.1 4 17 102260 67
2009-06-24 07:03:18 51°14.195 2°55.344 6.7 7 17 102260 67
2009-06-24 07:03:23 51°14.202 2°55.335 5.6 8 17 102260 67
2009-06-24 07:03:28 51°14.21 2°55.327 5.2 10 17 102260 66
2009-06-24 07:03:33 51°14.217 2°55.319 5.4 12 17 102260 66
2009-06-24 07:03:38 51°14.223 2°55.31 5.2 12 16.9 102260 66
2009-06-24 07:03:43 51°14.229 2°55.302 5.5 12 16.9 102260 66
2009-06-24 07:03:47 51°14.235 2°55.295 4.9 12 17 102260 67
2009-06-24 07:03:53 51°14.242 2°55.284 5.2 11 17 102260 67
2009-06-24 07:03:59 51°14.249 2°55.274 5 17 17 102260 67
2009-06-24 07:04:03 51°14.253 2°55.266 5.3 17 17 102260 67
2009-06-24 07:04:07 51°14.258 2°55.259 5.6 13 17 102260 66
2009-06-24 07:04:13 51°14.265 2°55.246 5.5 17 17 102260 66
2009-06-24 07:04:18 51°14.271 2°55.235 4.6 17 16.9 102260 66
2009-06-24 07:04:23 51°14.277 2°55.224 4.8 18 16.9 102260 66
2009-06-24 07:04:27 51°14.282 2°55.215 5.4 21 16.9 102260 66
2009-06-24 07:04:33 51°14.29 2°55.199 4 13 16.9 102260 66
2009-06-24 07:04:39 51°14.299 2°55.181 4 8 16.9 102260 67
2009-06-24 07:04:43 51°14.305 2°55.169 6.6 8 16.9 102260 67
2009-06-24 07:04:47 51°14.311 2°55.156 5.3 15 16.9 102270 66
2009-06-24 07:04:53 51°14.321 2°55.136 4.6 10 16.9 102270 66
2009-06-24 07:04:58 51°14.33 2°55.118 4.2 14 16.9 102270 67
2009-06-24 07:05:03 51°14.338 2°55.099 4.4 8 16.9 102270 67
2009-06-24 07:05:08 51°14.347 2°55.081 5.2 4 16.9 102260 67
2009-06-24 07:05:13 51°14.356 2°55.062 6.8 9 16.9 102260 67
2009-06-24 07:05:18 51°14.365 2°55.044 5.6 4 16.9 102270 66
2009-06-24 07:05:23 51°14.375 2°55.025 5.3 1 16.9 102270 66
2009-06-24 07:05:29 51°14.387 2°55.002 5.7 -999 16.9 102260 67
2009-06-24 07:05:34 51°14.396 2°54.983 7 3 16.9 102260 67
2009-06-24 07:05:39 51°14.406 2°54.965 7.3 -999 16.9 102260 69
2009-06-24 07:05:44 51°14.417 2°54.946 6.6 4 16.9 102260 69
2009-06-24 07:05:49 51°14.427 2°54.929 6.5 2 16.9 102260 69
2009-06-24 07:05:55 51°14.441 2°54.908 7.5 2 16.9 102260 69
2009-06-24 07:05:59 51°14.45 2°54.895 8.6 -999 16.9 102260 69
2009-06-24 07:06:04 51°14.462 2°54.878 8.2 360 16.9 102260 69
2009-06-24 07:06:08 51°14.472 2°54.866 8 358 16.8 102250 68
2009-06-24 07:06:14 51°14.487 2°54.846 7.8 358 16.8 102250 68
2009-06-24 07:06:19 51°14.499 2°54.83 6.9 356 16.8 102250 69
2009-06-24 07:06:24 51°14.511 2°54.815 8.7 356 16.8 102250 69
2009-06-24 07:06:29 51°14.523 2°54.798 8 355 16.8 102250 69
2009-06-24 07:06:34 51°14.535 2°54.781 8.1 352 16.8 102250 69
2009-06-24 07:06:40 51°14.55 2°54.762 8.8 352 16.8 102250 69
2009-06-24 07:06:44 51°14.56 2°54.749 7.9 355 16.8 102250 69
2009-06-24 07:06:49 51°14.572 2°54.733 7.6 356 16.8 102250 69
2009-06-24 07:06:54 51°14.584 2°54.716 8.2 355 16.8 102250 69
2009-06-24 07:06:59 51°14.596 2°54.7 8.2 355 16.7 102250 70
2009-06-24 07:07:04 51°14.609 2°54.684 8.8 354 16.7 102250 70
2009-06-24 07:07:09 51°14.621 2°54.669 8.6 353 16.7 102250 70
2009-06-24 07:07:14 51°14.633 2°54.653 9.3 357 16.7 102250 70
2009-06-24 07:07:19 51°14.646 2°54.638 9.1 353 16.7 102250 70
2009-06-24 07:07:24 51°14.658 2°54.622 9.8 354 16.7 102250 70
2009-06-24 07:07:29 51°14.671 2°54.608 8.3 354 16.6 102250 71
2009-06-24 07:07:34 51°14.684 2°54.593 9.9 355 16.6 102250 71
2009-06-24 07:07:39 51°14.696 2°54.578 9.8 357 16.7 102250 72
2009-06-24 07:07:44 51°14.709 2°54.563 9.6 354 16.7 102250 72
2009-06-24 07:07:49 51°14.721 2°54.549 8.9 356 16.6 102250 71
2009-06-24 07:07:54 51°14.734 2°54.536 9.3 355 16.6 102250 71
2009-06-24 07:07:59 51°14.747 2°54.52 10.4 356 16.6 102240 72
2009-06-24 07:08:04 51°14.759 2°54.505 9 357 16.6 102240 72
2009-06-24 07:08:09 51°14.771 2°54.489 8.8 355 16.6 102240 72
2009-06-24 07:08:14 51°14.782 2°54.472 8.7 2 16.6 102240 72
2009-06-24 07:08:19 51°14.794 2°54.455 8.8 1 16.5 102240 73
2009-06-24 07:08:24 51°14.805 2°54.438 7.7 4 16.5 102240 73
2009-06-24 07:08:29 51°14.817 2°54.42 8.6 356 16.5 102240 73
2009-06-24 07:08:34 51°14.828 2°54.402 9.3 3 16.5 102240 73
2009-06-24 07:08:39 51°14.839 2°54.384 8.2 2 16.5 102240 73
2009-06-24 07:08:44 51°14.85 2°54.365 8.2 3 16.5 102240 73
2009-06-24 07:08:49 51°14.86 2°54.346 8 4 16.5 102240 73
2009-06-24 07:08:54 51°14.871 2°54.327 7.9 2 16.5 102240 73
2009-06-24 07:09:00 51°14.883 2°54.304 7.8 4 16.5 102240 74
2009-06-24 07:09:04 51°14.891 2°54.288 8.6 3 16.5 102240 74
2009-06-24 07:09:09 51°14.9 2°54.268 6.8 3 16.5 102250 73
2009-06-24 07:09:14 51°14.91 2°54.247 8.4 6 16.5 102250 73
2009-06-24 07:09:19 51°14.919 2°54.227 7.2 5 16.4 102250 75
2009-06-24 07:09:24 51°14.928 2°54.206 7.9 5 16.4 102250 75
2009-06-24 07:09:29 51°14.939 2°54.188 7.1 4 16.4 102250 75
2009-06-24 07:09:35 51°14.951 2°54.165 8.1 2 16.4 102250 75
2009-06-24 07:09:39 51°14.959 2°54.15 7.9 4 16.4 102250 74
2009-06-24 07:09:44 51°14.969 2°54.131 8.4 2 16.4 102250 74
2009-06-24 07:09:48 51°14.978 2°54.117 9 -999 16.4 102250 74
2009-06-24 07:09:54 51°14.991 2°54.096 9.9 1 16.4 102250 74
2009-06-24 07:09:59 51°15.002 2°54.079 10.3 1 16.4 102250 74
2009-06-24 07:10:04 51°15.014 2°54.063 11.3 358 16.4 102250 74
2009-06-24 07:10:08 51°15.023 2°54.049 11 359 16.4 102240 74
2009-06-24 07:10:14 51°15.037 2°54.031 9.9 359 16.4 102240 74
2009-06-24 07:10:19 51°15.049 2°54.016 10.5 359 16.4 102240 74
2009-06-24 07:10:24 51°15.061 2°54.002 10.6 358 16.4 102240 74
2009-06-24 07:10:28 51°15.071 2°53.989 11.5 359 16.3 102240 74
2009-06-24 07:10:34 51°15.086 2°53.974 10.5 357 16.3 102240 74
2009-06-24 07:10:39 51°15.099 2°53.96 11.1 358 16.3 102240 74
2009-06-24 07:10:44 51°15.112 2°53.948 10.4 357 16.3 102240 74
2009-06-24 07:10:48 51°15.122 2°53.938 10.7 356 16.3 102240 73
2009-06-24 07:10:54 51°15.138 2°53.924 11.2 356 16.3 102240 73
2009-06-24 07:10:59 51°15.151 2°53.912 12.4 356 16.3 102240 74
2009-06-24 07:11:04 51°15.164 2°53.9 11.5 354 16.3 102240 74
2009-06-24 07:11:08 51°15.175 2°53.891 11.3 354 16.3 102230 75
2009-06-24 07:11:14 51°15.191 2°53.877 12.2 356 16.3 102230 75
2009-06-24 07:11:19 51°15.204 2°53.866 11.1 356 16.3 102240 74
2009-06-24 07:11:24 51°15.217 2°53.854 12 356 16.3 102240 74
2009-06-24 07:11:28 51°15.228 2°53.845 12.1 355 16.3 102230 74
2009-06-24 07:11:34 51°15.244 2°53.831 11.9 355 16.3 102230 74
2009-06-24 07:11:39 51°15.257 2°53.819 12.6 355 16.2 102230 74
2009-06-24 07:11:44 51°15.27 2°53.808 11.8 356 16.2 102230 74
2009-06-24 07:11:48 51°15.281 2°53.799 11.9 357 16.2 102230 73
2009-06-24 07:11:54 51°15.297 2°53.785 11.4 355 16.2 102230 73
2009-06-24 07:11:59 51°15.31 2°53.773 12.1 356 16.2 102230 74
2009-06-24 07:12:04 51°15.324 2°53.761 11.8 356 16.2 102230 74
2009-06-24 07:12:08 51°15.334 2°53.752 11.6 355 16.2 102230 73
2009-06-24 07:12:14 51°15.351 2°53.738 11 356 16.2 102230 73
2009-06-24 07:12:19 51°15.364 2°53.726 10.5 355 16.2 102230 73
2009-06-24 07:12:24 51°15.377 2°53.714 10.2 353 16.2 102230 73
2009-06-24 07:12:28 51°15.388 2°53.704 10.2 356 16.1 102230 72
2009-06-24 07:12:34 51°15.404 2°53.69 9.8 356 16.1 102230 72
2009-06-24 07:12:39 51°15.417 2°53.677 9.7 356 16.2 102230 73
2009-06-24 07:12:44 51°15.43 2°53.664 10.9 359 16.2 102230 73
2009-06-24 07:12:48 51°15.44 2°53.653 9.9 358 16.2 102230 74
2009-06-24 07:12:54 51°15.456 2°53.636 10.1 359 16.2 102230 74
2009-06-24 07:12:59 51°15.468 2°53.622 10.2 -999 16.2 102230 74
2009-06-24 07:13:04 51°15.481 2°53.608 9.8 359 16.2 102230 74
2009-06-24 07:13:08 51°15.491 2°53.597 9.3 357 16.2 102230 74
2009-06-24 07:13:14 51°15.506 2°53.579 10.9 357 16.2 102230 74
2009-06-24 07:13:19 51°15.519 2°53.565 9.7 357 16.2 102240 74
2009-06-24 07:13:24 51°15.531 2°53.55 10.4 359 16.2 102240 74
2009-06-24 07:13:28 51°15.542 2°53.539 10.3 -999 16.2 102240 75
2009-06-24 07:13:34 51°15.557 2°53.521 11.1 356 16.2 102240 75
2009-06-24 07:13:40 51°15.572 2°53.503 10.1 357 16.2 102240 75
2009-06-24 07:13:44 51°15.582 2°53.491 11.1 358 16.2 102240 75
2009-06-24 07:13:48 51°15.592 2°53.479 9.3 358 16.2 102230 75
2009-06-24 07:13:54 51°15.607 2°53.461 10.9 357 16.2 102230 75
2009-06-24 07:13:59 51°15.62 2°53.446 11 357 16.2 102230 76
2009-06-24 07:14:04 51°15.632 2°53.431 9.5 358 16.2 102230 76
2009-06-24 07:14:08 51°15.642 2°53.419 9.3 357 16.2 102230 75
2009-06-24 07:14:14 51°15.657 2°53.4 9.2 353 16.2 102230 75
2009-06-24 07:14:19 51°15.67 2°53.385 10.8 355 16.1 102230 75
2009-06-24 07:14:24 51°15.683 2°53.369 10.7 355 16.1 102230 75
2009-06-24 07:14:28 51°15.693 2°53.357 10 356 16.1 102240 74
2009-06-24 07:14:34 51°15.709 2°53.339 10.7 356 16.1 102240 74
2009-06-24 07:14:39 51°15.721 2°53.323 9.5 358 16.1 102230 75
2009-06-24 07:14:44 51°15.734 2°53.308 10.6 356 16.1 102230 75
2009-06-24 07:14:48 51°15.744 2°53.296 10.9 358 16.1 102230 76
2009-06-24 07:14:54 51°15.759 2°53.279 10.5 358 16.1 102230 76
2009-06-24 07:14:59 51°15.771 2°53.264 9.7 358 16.1 102230 76
2009-06-24 07:15:04 51°15.784 2°53.249 10.5 356 16.1 102230 76
2009-06-24 07:15:08 51°15.794 2°53.237 9.9 355 16.1 102230 76
2009-06-24 07:15:14 51°15.81 2°53.219 10.8 355 16.1 102230 76
2009-06-24 07:15:19 51°15.822 2°53.204 10.4 355 16.1 102230 76
2009-06-24 07:15:24 51°15.835 2°53.189 11.1 354 16.1 102230 76
2009-06-24 07:15:28 51°15.845 2°53.177 12 353 16.1 102230 76
2009-06-24 07:15:34 51°15.861 2°53.159 10.5 356 16.1 102230 76
2009-06-24 07:15:39 51°15.874 2°53.145 10.6 354 16.1 102230 75
2009-06-24 07:15:44 51°15.887 2°53.13 10.3 355 16.1 102230 75
2009-06-24 07:15:48 51°15.897 2°53.12 11.3 353 16.1 102230 76
2009-06-24 07:15:54 51°15.912 2°53.103 11.3 354 16.1 102230 76
2009-06-24 07:16:00 51°15.929 2°53.087 10 352 16.1 102230 76
2009-06-24 07:16:04 51°15.939 2°53.076 10.2 355 16.1 102230 76
2009-06-24 07:16:08 51°15.95 2°53.066 10.4 352 16 102230 76
2009-06-24 07:16:14 51°15.966 2°53.05 11.6 353 16 102230 76
2009-06-24 07:16:19 51°15.979 2°53.036 10.8 353 16 102230 75
2009-06-24 07:16:24 51°15.992 2°53.024 10.1 356 16 102230 75
2009-06-24 07:16:28 51°16.003 2°53.014 11 353 16 102230 76
2009-06-24 07:16:34 51°16.018 2°52.997 12.1 353 16 102230 76
2009-06-24 07:16:39 51°16.032 2°52.986 11.7 355 16 102220 76
2009-06-24 07:16:44 51°16.045 2°52.971 11.4 353 16 102220 76
2009-06-24 07:16:48 51°16.055 2°52.962 10.6 355 16 102230 77
2009-06-24 07:16:54 51°16.071 2°52.947 11.3 353 16 102230 77
2009-06-24 07:16:59 51°16.084 2°52.935 11.9 356 16 102230 77
2009-06-24 07:17:04 51°16.098 2°52.922 10.1 355 16 102230 77
2009-06-24 07:17:10 51°16.114 2°52.908 10.4 353 16 102230 76
2009-06-24 07:17:14 51°16.125 2°52.897 11.8 354 16 102230 76
2009-06-24 07:17:19 51°16.138 2°52.885 11 353 15.9 102230 75
2009-06-24 07:17:24 51°16.152 2°52.872 10.3 354 15.9 102230 75
2009-06-24 07:17:28 51°16.162 2°52.862 10.6 353 15.9 102230 76
2009-06-24 07:17:34 51°16.178 2°52.846 12 354 15.9 102230 76
2009-06-24 07:17:39 51°16.192 2°52.833 11.9 352 16 102230 76
2009-06-24 07:17:44 51°16.206 2°52.82 11.2 354 16 102230 76
2009-06-24 07:17:48 51°16.216 2°52.81 11.1 353 15.9 102230 76
2009-06-24 07:17:54 51°16.232 2°52.794 11.7 354 15.9 102230 76
2009-06-24 07:17:59 51°16.245 2°52.78 11.1 354 15.9 102230 75
2009-06-24 07:18:04 51°16.258 2°52.767 10 354 15.9 102230 75
2009-06-24 07:18:08 51°16.269 2°52.757 10 354 15.9 102220 75
2009-06-24 07:18:14 51°16.284 2°52.741 11.2 352 15.9 102220 75
2009-06-24 07:18:20 51°16.3 2°52.725 10.2 352 15.9 102230 75
2009-06-24 07:18:24 51°16.311 2°52.715 11.4 355 15.9 102230 75
2009-06-24 07:18:28 51°16.321 2°52.704 10.8 354 15.9 102220 74
2009-06-24 07:18:34 51°16.337 2°52.688 11.3 355 15.9 102220 74
2009-06-24 07:18:39 51°16.35 2°52.674 10 355 15.9 102230 76
2009-06-24 07:18:44 51°16.363 2°52.66 9.2 354 15.9 102230 76
2009-06-24 07:18:48 51°16.373 2°52.65 10.5 355 15.9 102230 75
2009-06-24 07:18:54 51°16.389 2°52.633 11.1 357 15.9 102230 75
2009-06-24 07:18:59 51°16.402 2°52.62 11.2 354 15.9 102220 76
2009-06-24 07:19:04 51°16.415 2°52.606 10.7 357 15.9 102220 76
2009-06-24 07:19:08 51°16.426 2°52.595 9.9 353 15.9 102220 76
2009-06-24 07:19:14 51°16.441 2°52.579 11.7 353 15.9 102220 76
2009-06-24 07:19:19 51°16.455 2°52.566 11.6 355 15.9 102240 77
2009-06-24 07:19:24 51°16.468 2°52.552 11.2 358 15.9 102240 77
2009-06-24 07:19:30 51°16.483 2°52.535 9.3 354 15.9 102230 76
2009-06-24 07:19:34 51°16.494 2°52.524 10.7 355 15.9 102230 76
2009-06-24 07:19:39 51°16.507 2°52.511 10.3 357 16 102230 77
2009-06-24 07:19:44 51°16.52 2°52.498 10.8 356 16 102230 77
2009-06-24 07:19:48 51°16.531 2°52.488 11 355 15.9 102220 76
2009-06-24 07:19:54 51°16.547 2°52.474 12.3 356 15.9 102220 76
2009-06-24 07:19:59 51°16.56 2°52.462 11.7 356 15.9 102230 77
2009-06-24 07:20:04 51°16.574 2°52.451 11.1 356 15.9 102230 77
2009-06-24 07:20:08 51°16.585 2°52.442 12.5 357 15.9 102230 76
2009-06-24 07:20:15 51°16.604 2°52.426 11.1 357 15.9 102230 76
2009-06-24 07:20:20 51°16.618 2°52.415 12 357 15.9 102230 75
2009-06-24 07:20:24 51°16.629 2°52.407 10.9 358 15.9 102230 75
2009-06-24 07:20:28 51°16.64 2°52.399 11.7 355 15.9 102240 76
2009-06-24 07:20:34 51°16.657 2°52.386 11.5 357 15.9 102240 76
2009-06-24 07:20:39 51°16.671 2°52.377 11.8 357 15.9 102230 75
2009-06-24 07:20:44 51°16.684 2°52.367 12.1 358 15.9 102230 75
2009-06-24 07:20:48 51°16.696 2°52.361 12.3 358 15.9 102230 76
2009-06-24 07:20:54 51°16.713 2°52.349 10.6 356 15.9 102230 76
2009-06-24 07:20:59 51°16.726 2°52.34 10.7 354 15.9 102220 76
2009-06-24 07:21:04 51°16.74 2°52.331 13 352 15.9 102220 76
2009-06-24 07:21:08 51°16.752 2°52.325 11.5 353 15.9 102230 76
2009-06-24 07:21:14 51°16.768 2°52.315 12.3 355 15.9 102230 76
2009-06-24 07:21:19 51°16.782 2°52.308 13.5 356 16 102230 76
2009-06-24 07:21:24 51°16.796 2°52.299 13.5 354 16 102230 76
2009-06-24 07:21:28 51°16.807 2°52.293 12.4 355 16 102230 77
2009-06-24 07:21:34 51°16.824 2°52.284 11.5 356 16 102230 77
2009-06-24 07:21:39 51°16.838 2°52.277 12.5 356 16 102230 77
2009-06-24 07:21:44 51°16.852 2°52.269 11.1 355 16 102230 77
2009-06-24 07:21:48 51°16.863 2°52.264 12.5 355 15.9 102220 76
2009-06-24 07:21:54 51°16.88 2°52.256 12 356 15.9 102220 76
2009-06-24 07:21:59 51°16.894 2°52.248 12.5 355 15.9 102230 76
2009-06-24 07:22:04 51°16.908 2°52.241 12.4 354 15.9 102230 76
2009-06-24 07:22:09 51°16.923 2°52.235 12.4 356 15.9 102220 76
2009-06-24 07:22:15 51°16.939 2°52.226 12.5 353 15.9 102220 76
2009-06-24 07:22:19 51°16.951 2°52.222 13.2 351 15.9 102220 75
2009-06-24 07:22:24 51°16.965 2°52.216 12.8 351 15.9 102220 75
2009-06-24 07:22:29 51°16.979 2°52.211 11.6 351 15.9 102230 75
2009-06-24 07:22:34 51°16.993 2°52.206 13.1 351 15.9 102230 75
2009-06-24 07:22:40 51°17.01 2°52.2 12.5 353 16 102230 76
2009-06-24 07:22:44 51°17.022 2°52.196 12.6 350 16 102230 76
2009-06-24 07:22:49 51°17.036 2°52.191 11.5 351 15.9 102220 76
2009-06-24 07:22:54 51°17.05 2°52.187 12.8 354 15.9 102220 76
2009-06-24 07:22:59 51°17.065 2°52.182 12.1 353 15.9 102220 75
2009-06-24 07:23:04 51°17.079 2°52.178 11 354 15.9 102220 75
2009-06-24 07:23:09 51°17.093 2°52.173 13.1 355 15.9 102220 75
2009-06-24 07:23:14 51°17.108 2°52.168 11.3 351 15.9 102220 75
2009-06-24 07:23:19 51°17.122 2°52.164 14.1 354 15.9 102220 75
2009-06-24 07:23:24 51°17.136 2°52.159 12.7 355 15.9 102220 75
2009-06-24 07:23:29 51°17.15 2°52.154 12.5 353 15.9 102220 76
2009-06-24 07:23:34 51°17.165 2°52.149 12.4 356 15.9 102220 76
2009-06-24 07:23:39 51°17.179 2°52.145 11.9 356 16 102220 76
2009-06-24 07:23:44 51°17.193 2°52.14 10.6 351 16 102220 76
2009-06-24 07:23:49 51°17.208 2°52.135 12.1 352 16 102220 75
2009-06-24 07:23:54 51°17.222 2°52.131 13.6 352 16 102220 75
2009-06-24 07:23:59 51°17.236 2°52.126 13 351 15.9 102220 74
2009-06-24 07:24:04 51°17.251 2°52.121 12 353 15.9 102220 74
2009-06-24 07:24:09 51°17.265 2°52.117 11.8 352 16 102220 76
2009-06-24 07:24:15 51°17.282 2°52.111 11.5 352 16 102220 76
2009-06-24 07:24:20 51°17.296 2°52.107 12.3 353 16 102220 76
2009-06-24 07:24:24 51°17.308 2°52.103 11.3 350 16 102220 76
2009-06-24 07:24:29 51°17.322 2°52.099 11.5 352 15.9 102220 75
2009-06-24 07:24:35 51°17.339 2°52.093 11.3 351 15.9 102220 75
2009-06-24 07:24:39 51°17.35 2°52.089 12.8 352 16 102230 75
2009-06-24 07:24:44 51°17.364 2°52.085 10.2 350 16 102230 75
2009-06-24 07:24:49 51°17.379 2°52.08 11.2 352 16 102230 77
2009-06-24 07:24:54 51°17.393 2°52.075 12.1 348 16 102230 77
2009-06-24 07:25:00 51°17.41 2°52.07 12.9 350 16 102230 76
2009-06-24 07:25:04 51°17.421 2°52.065 11.9 352 16 102230 76
2009-06-24 07:25:09 51°17.435 2°52.059 13 354 16 102230 76
2009-06-24 07:25:14 51°17.448 2°52.052 11.7 357 16 102230 76
2009-06-24 07:25:19 51°17.461 2°52.041 10.9 357 16 102230 76
2009-06-24 07:25:24 51°17.474 2°52.03 11.3 359 16 102230 76
2009-06-24 07:25:29 51°17.486 2°52.017 10.2 358 16 102230 77
2009-06-24 07:25:34 51°17.498 2°52.004 11.4 357 16 102230 77
2009-06-24 07:25:39 51°17.51 2°51.989 11 358 16 102220 76
2009-06-24 07:25:44 51°17.522 2°51.974 10 357 16 102220 76
2009-06-24 07:25:49 51°17.533 2°51.957 11.4 1 16 102230 75
2009-06-24 07:25:54 51°17.544 2°51.941 7.9 1 16 102230 75
2009-06-24 07:25:59 51°17.555 2°51.923 9 1 16 102230 76
2009-06-24 07:26:04 51°17.566 2°51.906 9.3 360 16 102230 76
2009-06-24 07:26:09 51°17.575 2°51.887 7.6 5 16 102240 76
2009-06-24 07:26:15 51°17.588 2°51.865 9.2 7 16 102240 76
2009-06-24 07:26:19 51°17.596 2°51.849 8.7 6 16 102230 75
2009-06-24 07:26:24 51°17.606 2°51.83 9.3 8 16 102230 75
2009-06-24 07:26:29 51°17.616 2°51.81 6.9 5 16 102240 75
2009-06-24 07:26:35 51°17.627 2°51.786 8.2 5 16 102240 75
2009-06-24 07:26:40 51°17.637 2°51.766 8 6 16 102230 76
2009-06-24 07:26:44 51°17.645 2°51.75 7.9 5 16 102230 76
2009-06-24 07:26:49 51°17.654 2°51.73 9 4 16 102240 75
2009-06-24 07:26:54 51°17.663 2°51.71 7.4 7 16 102240 75
2009-06-24 07:27:00 51°17.674 2°51.686 6.6 7 16 102230 76
2009-06-24 07:27:04 51°17.682 2°51.67 7.9 7 16 102230 76
2009-06-24 07:27:09 51°17.691 2°51.649 9.3 8 16 102240 76
2009-06-24 07:27:14 51°17.7 2°51.628 6.8 5 16 102240 76
2009-06-24 07:27:19 51°17.709 2°51.608 7.5 4 16 102250 76
2009-06-24 07:27:24 51°17.718 2°51.587 7.9 6 16 102250 76
2009-06-24 07:27:29 51°17.727 2°51.566 7.7 6 16 102250 75
2009-06-24 07:27:34 51°17.735 2°51.544 8.5 8 16 102250 75
2009-06-24 07:27:39 51°17.743 2°51.522 8.5 8 16 102250 76
2009-06-24 07:27:44 51°17.751 2°51.5 7.6 8 16 102250 76
2009-06-24 07:27:49 51°17.759 2°51.477 8 9 16.1 102250 76
2009-06-24 07:27:54 51°17.766 2°51.454 7.8 8 16.1 102250 76
2009-06-24 07:27:59 51°17.774 2°51.431 6.4 7 16.1 102250 76
2009-06-24 07:28:04 51°17.782 2°51.408 9.2 10 16.1 102250 76
2009-06-24 07:28:09 51°17.789 2°51.385 8.5 7 16.1 102240 76
2009-06-24 07:28:14 51°17.797 2°51.362 9.3 8 16.1 102240 76
2009-06-24 07:28:19 51°17.804 2°51.339 8.5 9 16.1 102240 75
2009-06-24 07:28:24 51°17.811 2°51.315 9.7 11 16.1 102240 75
2009-06-24 07:28:29 51°17.818 2°51.292 7 7 16.1 102240 75
2009-06-24 07:28:35 51°17.827 2°51.264 8.7 9 16.1 102240 75
2009-06-24 07:28:39 51°17.832 2°51.245 8.7 9 16 102250 74
2009-06-24 07:28:44 51°17.839 2°51.222 7.5 7 16 102250 74
2009-06-24 07:28:49 51°17.847 2°51.198 8.8 9 16 102240 74
2009-06-24 07:28:55 51°17.855 2°51.17 7.3 7 16 102240 74
2009-06-24 07:29:00 51°17.863 2°51.147 7.6 9 16 102250 75
2009-06-24 07:29:04 51°17.868 2°51.128 7.7 10 16 102250 75
2009-06-24 07:29:09 51°17.876 2°51.104 8 12 16 102250 74
2009-06-24 07:29:14 51°17.883 2°51.08 7.1 8 16 102250 74
2009-06-24 07:29:20 51°17.891 2°51.052 8.6 11 16 102250 74
2009-06-24 07:29:24 51°17.897 2°51.033 7 10 16 102250 74
2009-06-24 07:29:29 51°17.904 2°51.009 9.2 9 16 102250 74
2009-06-24 07:29:34 51°17.912 2°50.985 7.6 9 16 102250 74
2009-06-24 07:29:40 51°17.921 2°50.957 8.4 9 16 102250 74
2009-06-24 07:29:44 51°17.926 2°50.938 9.8 9 16 102250 74
2009-06-24 07:29:49 51°17.934 2°50.914 9.5 11 16.1 102250 76
2009-06-24 07:29:54 51°17.941 2°50.891 8.2 8 16.1 102250 76
2009-06-24 07:29:59 51°17.948 2°50.867 7.6 10 16.1 102250 74
2009-06-24 07:30:04 51°17.955 2°50.843 7.1 10 16.1 102250 74
2009-06-24 07:30:09 51°17.962 2°50.819 7.5 8 16.1 102250 74
2009-06-24 07:30:14 51°17.969 2°50.795 6.5 7 16.1 102250 74
2009-06-24 07:30:19 51°17.977 2°50.771 9.6 9 16.1 102250 75
2009-06-24 07:30:24 51°17.984 2°50.747 9.1 10 16.1 102250 75
2009-06-24 07:30:29 51°17.992 2°50.723 9 10 16.1 102250 75
2009-06-24 07:30:34 51°17.999 2°50.699 7.7 10 16.1 102250 75
2009-06-24 07:30:39 51°18.006 2°50.675 7 9 16.1 102250 76
2009-06-24 07:30:44 51°18.013 2°50.651 7.4 9 16.1 102250 76
2009-06-24 07:30:49 51°18.02 2°50.627 7 7 16.1 102250 74
2009-06-24 07:30:55 51°18.028 2°50.598 9.3 11 16.1 102250 74
2009-06-24 07:30:59 51°18.035 2°50.58 8.8 10 16.1 102240 75
2009-06-24 07:31:04 51°18.041 2°50.555 8.9 11 16.1 102240 75
2009-06-24 07:31:09 51°18.048 2°50.531 7.4 10 16.1 102260 75
2009-06-24 07:31:15 51°18.057 2°50.502 8.1 10 16.1 102260 75
2009-06-24 07:31:20 51°18.064 2°50.478 6.2 8 16.1 102250 75
2009-06-24 07:31:24 51°18.07 2°50.459 8.7 8 16.1 102250 75
2009-06-24 07:31:29 51°18.078 2°50.435 8.1 8 16.1 102250 75
2009-06-24 07:31:34 51°18.085 2°50.411 7.4 7 16.1 102250 75
2009-06-24 07:31:40 51°18.094 2°50.383 7.8 8 16.1 102250 74
2009-06-24 07:31:44 51°18.1 2°50.364 8.4 8 16.1 102250 74
2009-06-24 07:31:49 51°18.108 2°50.34 7.6 8 16.1 102240 74
2009-06-24 07:31:54 51°18.116 2°50.316 6.4 6 16.1 102240 74
2009-06-24 07:32:00 51°18.125 2°50.287 7.9 9 16.1 102250 75
2009-06-24 07:32:04 51°18.131 2°50.268 5.2 8 16.1 102250 75
2009-06-24 07:32:09 51°18.139 2°50.244 7.3 7 16.1 102250 75
2009-06-24 07:32:14 51°18.146 2°50.219 7.9 4 16.1 102250 75
2009-06-24 07:32:19 51°18.153 2°50.195 7.8 10 16.1 102240 76
2009-06-24 07:32:24 51°18.161 2°50.171 7.5 8 16.1 102240 76
2009-06-24 07:32:29 51°18.168 2°50.147 8.5 8 16.1 102250 77
2009-06-24 07:32:34 51°18.175 2°50.123 7.2 7 16.1 102250 77
2009-06-24 07:32:39 51°18.183 2°50.099 7.9 7 16.2 102250 77
2009-06-24 07:32:44 51°18.189 2°50.074 8.9 8 16.2 102250 77
2009-06-24 07:32:49 51°18.197 2°50.05 8.4 8 16.1 102240 76
2009-06-24 07:32:54 51°18.204 2°50.026 9.6 8 16.1 102240 76
2009-06-24 07:32:59 51°18.211 2°50.001 9 8 16.1 102240 75
2009-06-24 07:33:04 51°18.218 2°49.977 8 9 16.1 102240 75
2009-06-24 07:33:09 51°18.225 2°49.953 8.6 8 16.1 102240 75
2009-06-24 07:33:15 51°18.234 2°49.923 4.4 7 16.1 102240 75
2009-06-24 07:33:20 51°18.241 2°49.899 8 7 16.1 102250 74
2009-06-24 07:33:24 51°18.246 2°49.879 7.1 8 16.1 102250 74
2009-06-24 07:33:29 51°18.253 2°49.855 7 7 16.1 102240 75
2009-06-24 07:33:35 51°18.262 2°49.826 7.4 2 16.1 102240 75
2009-06-24 07:33:40 51°18.269 2°49.802 8.5 8 16.1 102250 74
2009-06-24 07:33:44 51°18.275 2°49.783 7.1 8 16.1 102250 74
2009-06-24 07:33:49 51°18.282 2°49.758 8.4 8 16.1 102240 73
2009-06-24 07:33:55 51°18.291 2°49.73 8.7 8 16.1 102240 73
2009-06-24 07:33:59 51°18.297 2°49.711 8.1 8 16.1 102250 74
2009-06-24 07:34:04 51°18.305 2°49.687 6.2 5 16.1 102250 74
2009-06-24 07:34:09 51°18.312 2°49.663 6.7 5 16.1 102240 74
2009-06-24 07:34:14 51°18.319 2°49.64 8 7 16.1 102240 74
2009-06-24 07:34:20 51°18.328 2°49.611 6.7 5 16.1 102240 75
2009-06-24 07:34:24 51°18.334 2°49.592 8.5 8 16.1 102240 75
2009-06-24 07:34:29 51°18.341 2°49.569 8 8 16.1 102240 76
2009-06-24 07:34:34 51°18.349 2°49.545 6.3 5 16.1 102240 76
2009-06-24 07:34:39 51°18.356 2°49.522 7.9 8 16.1 102250 76
2009-06-24 07:34:44 51°18.363 2°49.498 8.2 7 16.1 102250 76
2009-06-24 07:34:49 51°18.371 2°49.474 6.5 5 16.1 102240 76
2009-06-24 07:34:55 51°18.38 2°49.446 7.6 7 16.1 102240 76
2009-06-24 07:34:59 51°18.386 2°49.427 6.5 9 16.1 102250 75
2009-06-24 07:35:04 51°18.393 2°49.403 6.5 4 16.1 102250 75
2009-06-24 07:35:09 51°18.4 2°49.38 6.3 3 16.1 102250 76
2009-06-24 07:35:15 51°18.409 2°49.351 7.3 8 16.1 102250 76
2009-06-24 07:35:19 51°18.415 2°49.332 7.2 7 16.1 102260 75
2009-06-24 07:35:24 51°18.422 2°49.308 8.8 9 16.1 102260 75
2009-06-24 07:35:29 51°18.431 2°49.285 7.2 3 16.1 102240 76
2009-06-24 07:35:35 51°18.439 2°49.256 9 9 16.1 102240 76
2009-06-24 07:35:40 51°18.447 2°49.233 10.4 9 16.1 102240 76
2009-06-24 07:35:44 51°18.453 2°49.214 10.2 10 16.1 102240 76
2009-06-24 07:35:49 51°18.461 2°49.19 9.1 8 16.1 102250 75
2009-06-24 07:35:55 51°18.47 2°49.162 8.3 9 16.1 102250 75
2009-06-24 07:36:00 51°18.477 2°49.139 10 9 16.1 102240 75
2009-06-24 07:36:04 51°18.483 2°49.119 9.1 11 16.1 102240 75
2009-06-24 07:36:09 51°18.491 2°49.096 9 10 16.1 102230 74
2009-06-24 07:36:14 51°18.498 2°49.072 7.8 10 16.1 102230 74
2009-06-24 07:36:20 51°18.508 2°49.043 7.7 9 16.1 102240 74
2009-06-24 07:36:24 51°18.514 2°49.024 7.2 8 16.1 102240 74
2009-06-24 07:36:29 51°18.521 2°49 7.7 9 16.1 102240 74
2009-06-24 07:36:34 51°18.529 2°48.976 8.9 10 16.1 102240 74
2009-06-24 07:36:40 51°18.537 2°48.946 7.5 11 16.1 102240 74
2009-06-24 07:36:44 51°18.544 2°48.928 8.7 11 16.1 102240 74
2009-06-24 07:36:49 51°18.552 2°48.904 7.4 9 16.1 102250 75
2009-06-24 07:36:54 51°18.559 2°48.88 8.1 9 16.1 102250 75
2009-06-24 07:36:59 51°18.567 2°48.857 7 8 16.1 102240 74
2009-06-24 07:37:04 51°18.575 2°48.834 7 8 16.1 102240 74
2009-06-24 07:37:09 51°18.582 2°48.809 8.6 8 16.1 102250 74
2009-06-24 07:37:14 51°18.59 2°48.785 8 9 16.1 102250 74
2009-06-24 07:37:19 51°18.597 2°48.761 7.6 8 16.2 102260 74
2009-06-24 07:37:24 51°18.605 2°48.738 7.7 9 16.2 102260 74
2009-06-24 07:37:29 51°18.612 2°48.714 8 8 16.2 102250 75
2009-06-24 07:37:35 51°18.622 2°48.685 8.6 10 16.2 102250 75
2009-06-24 07:37:39 51°18.628 2°48.666 8.7 10 16.2 102250 75
2009-06-24 07:37:44 51°18.636 2°48.642 8.3 8 16.2 102250 75
2009-06-24 07:37:49 51°18.643 2°48.618 6.3 7 16.2 102240 76
2009-06-24 07:37:55 51°18.653 2°48.59 7.6 6 16.2 102240 76
2009-06-24 07:38:00 51°18.661 2°48.566 6.5 6 16.2 102250 76
2009-06-24 07:38:04 51°18.668 2°48.547 7.6 7 16.2 102250 76
2009-06-24 07:38:09 51°18.675 2°48.522 8.1 7 16.2 102250 76
2009-06-24 07:38:15 51°18.685 2°48.494 7.4 6 16.2 102250 76
2009-06-24 07:38:20 51°18.692 2°48.469 8.5 7 16.2 102240 76
2009-06-24 07:38:24 51°18.698 2°48.45 6.2 8 16.2 102240 76
2009-06-24 07:38:29 51°18.706 2°48.425 7.2 8 16.2 102240 76
2009-06-24 07:38:34 51°18.714 2°48.401 5.8 6 16.2 102240 76
2009-06-24 07:38:40 51°18.723 2°48.372 8.5 6 16.2 102250 75
2009-06-24 07:38:44 51°18.729 2°48.353 7.7 7 16.2 102250 75
2009-06-24 07:38:49 51°18.737 2°48.329 6.6 3 16.2 102240 75
2009-06-24 07:38:54 51°18.745 2°48.305 7.9 3 16.2 102240 75
2009-06-24 07:38:59 51°18.753 2°48.281 7.1 4 16.2 102240 77
2009-06-24 07:39:04 51°18.761 2°48.259 8.7 2 16.2 102240 77
2009-06-24 07:39:09 51°18.772 2°48.239 4.4 -999 16.2 102250 75
2009-06-24 07:39:14 51°18.782 2°48.22 8.8 359 16.2 102250 75
2009-06-24 07:39:19 51°18.793 2°48.201 8.6 359 16.2 102240 75
2009-06-24 07:39:24 51°18.804 2°48.183 9.1 359 16.2 102240 75
2009-06-24 07:39:29 51°18.815 2°48.166 9.1 2 16.2 102240 75
2009-06-24 07:39:34 51°18.827 2°48.149 8.7 2 16.2 102240 75
2009-06-24 07:39:39 51°18.838 2°48.133 8.7 4 16.2 102240 76
2009-06-24 07:39:44 51°18.85 2°48.116 10.7 359 16.2 102240 76
2009-06-24 07:39:49 51°18.862 2°48.101 10.5 358 16.2 102240 76
2009-06-24 07:39:55 51°18.877 2°48.081 10.7 358 16.2 102240 76
2009-06-24 07:39:59 51°18.887 2°48.07 10.2 -999 16.2 102240 75
2009-06-24 07:40:04 51°18.899 2°48.054 9.9 358 16.2 102240 75
2009-06-24 07:40:09 51°18.912 2°48.039 10.6 357 16.2 102230 75
2009-06-24 07:40:15 51°18.927 2°48.021 9.7 358 16.2 102230 75
2009-06-24 07:40:20 51°18.939 2°48.006 10.6 358 16.2 102230 76
2009-06-24 07:40:24 51°18.949 2°47.993 9.6 357 16.2 102230 76
2009-06-24 07:40:29 51°18.962 2°47.978 10.4 357 16.2 102230 76
2009-06-24 07:40:35 51°18.977 2°47.96 8.6 357 16.2 102230 76
2009-06-24 07:40:39 51°18.987 2°47.948 10.2 358 16.2 102230 75
2009-06-24 07:40:44 51°19 2°47.933 9.6 355 16.2 102230 75
2009-06-24 07:40:49 51°19.012 2°47.918 9.7 356 16.2 102220 76
2009-06-24 07:40:54 51°19.025 2°47.903 11 357 16.2 102220 76
2009-06-24 07:41:00 51°19.04 2°47.885 11 355 16.2 102230 77
2009-06-24 07:41:04 51°19.05 2°47.872 9.8 358 16.2 102230 77
2009-06-24 07:41:09 51°19.063 2°47.857 9.4 358 16.2 102230 76
2009-06-24 07:41:14 51°19.075 2°47.841 10.7 357 16.2 102230 76
2009-06-24 07:41:19 51°19.088 2°47.826 10.4 357 16.2 102230 75
2009-06-24 07:41:24 51°19.1 2°47.81 10 356 16.2 102230 75
2009-06-24 07:41:29 51°19.113 2°47.794 11.1 356 16.2 102220 76
2009-06-24 07:41:35 51°19.128 2°47.775 9.7 358 16.2 102220 76
2009-06-24 07:41:39 51°19.137 2°47.762 10.5 357 16.2 102230 77
2009-06-24 07:41:44 51°19.15 2°47.747 10.8 357 16.2 102230 77
2009-06-24 07:41:49 51°19.162 2°47.731 10.9 1 16.2 102220 75
2009-06-24 07:41:54 51°19.174 2°47.715 9 2 16.2 102220 75
2009-06-24 07:41:59 51°19.186 2°47.7 11.1 -999 16.2 102230 76
2009-06-24 07:42:04 51°19.198 2°47.683 10.2 359 16.2 102230 76
2009-06-24 07:42:09 51°19.21 2°47.669 8.7 357 16.2 102220 76
2009-06-24 07:42:15 51°19.225 2°47.65 9 357 16.2 102220 76
2009-06-24 07:42:19 51°19.235 2°47.637 9.6 359 16.2 102240 75
2009-06-24 07:42:24 51°19.247 2°47.622 11 356 16.2 102240 75
2009-06-24 07:42:29 51°19.26 2°47.606 9.2 359 16.1 102230 74
2009-06-24 07:42:35 51°19.275 2°47.587 11.1 357 16.1 102230 74
2009-06-24 07:42:40 51°19.288 2°47.572 10.1 356 16.2 102240 75
2009-06-24 07:42:44 51°19.298 2°47.561 10.9 356 16.2 102240 75
2009-06-24 07:42:49 51°19.311 2°47.545 10.4 356 16.2 102230 76
2009-06-24 07:42:54 51°19.324 2°47.531 10 355 16.2 102230 76
2009-06-24 07:43:00 51°19.34 2°47.513 10.7 354 16.2 102230 77
2009-06-24 07:43:04 51°19.35 2°47.501 11.3 356 16.2 102230 77
2009-06-24 07:43:09 51°19.363 2°47.485 10.4 356 16.2 102220 78
2009-06-24 07:43:14 51°19.375 2°47.47 11.5 357 16.2 102220 78
2009-06-24 07:43:19 51°19.388 2°47.456 11 358 16.2 102220 78
2009-06-24 07:43:24 51°19.401 2°47.44 11.7 357 16.2 102220 78
2009-06-24 07:43:29 51°19.414 2°47.426 10.9 355 16.2 102220 77
2009-06-24 07:43:34 51°19.427 2°47.411 11.7 357 16.2 102220 77
2009-06-24 07:43:39 51°19.44 2°47.397 9.8 355 16.2 102230 77
2009-06-24 07:43:44 51°19.452 2°47.381 11 355 16.2 102230 77
2009-06-24 07:43:49 51°19.465 2°47.366 11.3 353 16.2 102220 77
2009-06-24 07:43:55 51°19.48 2°47.348 11.7 354 16.2 102220 77
2009-06-24 07:43:59 51°19.491 2°47.336 12.2 355 16.2 102220 78
2009-06-24 07:44:04 51°19.503 2°47.321 11.3 355 16.2 102220 78
2009-06-24 07:44:10 51°19.518 2°47.303 10.6 355 16.1 102230 78
2009-06-24 07:44:14 51°19.528 2°47.291 11.4 356 16.1 102230 78
2009-06-24 07:44:19 51°19.541 2°47.276 12 356 16.1 102240 79
2009-06-24 07:44:24 51°19.554 2°47.26 10.1 356 16.1 102240 79
2009-06-24 07:44:28 51°19.564 2°47.248 11.6 357 16.1 102220 79
2009-06-24 07:44:34 51°19.579 2°47.23 10 354 16.1 102220 79
2009-06-24 07:44:39 51°19.591 2°47.214 10.8 354 16.1 102220 78
2009-06-24 07:44:44 51°19.604 2°47.199 12.6 358 16.1 102220 78
2009-06-24 07:44:49 51°19.616 2°47.183 10.4 357 16.1 102210 78
2009-06-24 07:44:55 51°19.631 2°47.165 10.6 357 16.1 102210 78
2009-06-24 07:44:59 51°19.641 2°47.152 9.6 359 16.1 102220 79
2009-06-24 07:45:04 51°19.654 2°47.137 10 355 16.1 102220 79
2009-06-24 07:45:08 51°19.664 2°47.124 9.3 356 16.1 102220 78
2009-06-24 07:45:15 51°19.682 2°47.103 10.7 355 16.1 102220 78
2009-06-24 07:45:20 51°19.694 2°47.087 12.3 355 16.1 102220 77
2009-06-24 07:45:24 51°19.705 2°47.075 10.4 357 16.1 102220 77
2009-06-24 07:45:28 51°19.715 2°47.063 10.9 357 16.1 102230 79
2009-06-24 07:45:34 51°19.73 2°47.045 10.5 356 16.1 102230 79
2009-06-24 07:45:40 51°19.746 2°47.028 10.3 355 16.1 102220 79
2009-06-24 07:45:44 51°19.757 2°47.019 12.1 351 16.1 102220 79
2009-06-24 07:45:48 51°19.768 2°47.011 11.2 351 16 102220 77
2009-06-24 07:45:54 51°19.784 2°47.001 12.7 348 16 102220 77
2009-06-24 07:45:59 51°19.798 2°46.996 12 347 16 102210 78
2009-06-24 07:46:04 51°19.812 2°46.994 11.6 344 16 102210 78
2009-06-24 07:46:08 51°19.823 2°46.993 13.1 344 16 102220 78
2009-06-24 07:46:14 51°19.839 2°46.995 12.9 341 16 102220 78
2009-06-24 07:46:19 51°19.852 2°46.996 12.6 343 16 102220 77
2009-06-24 07:46:24 51°19.866 2°46.999 11.4 341 16 102220 77
2009-06-24 07:46:30 51°19.881 2°47.004 13.6 340 16.1 102230 78
2009-06-24 07:46:34 51°19.891 2°47.009 12.4 341 16.1 102230 78
2009-06-24 07:46:39 51°19.904 2°47.015 12.5 341 16.1 102220 78
2009-06-24 07:46:44 51°19.916 2°47.022 13.5 338 16.1 102220 78
2009-06-24 07:46:49 51°19.928 2°47.029 13.5 342 16.1 102220 78
2009-06-24 07:46:55 51°19.943 2°47.039 13.6 337 16.1 102220 78
2009-06-24 07:46:59 51°19.953 2°47.046 13.3 337 16.1 102220 78
2009-06-24 07:47:04 51°19.965 2°47.055 14.1 338 16.1 102220 78
2009-06-24 07:47:09 51°19.976 2°47.064 13.4 337 16.1 102220 78
2009-06-24 07:47:15 51°19.991 2°47.075 12.9 337 16.1 102220 78
2009-06-24 07:47:20 51°20.002 2°47.085 12.3 336 16.1 102230 78
2009-06-24 07:47:24 51°20.012 2°47.092 13.4 338 16.1 102230 78
2009-06-24 07:47:29 51°20.024 2°47.102 14.1 338 16.1 102220 77
2009-06-24 07:47:34 51°20.035 2°47.112 14.6 338 16.1 102220 77
2009-06-24 07:47:40 51°20.049 2°47.123 12.3 339 16.2 102220 78
2009-06-24 07:47:44 51°20.059 2°47.13 13.7 339 16.2 102220 78
2009-06-24 07:47:49 51°20.07 2°47.14 11.7 338 16.2 102220 77
2009-06-24 07:47:54 51°20.082 2°47.149 11.7 336 16.2 102220 77
2009-06-24 07:48:00 51°20.096 2°47.161 13 338 16.1 102220 77
2009-06-24 07:48:04 51°20.105 2°47.169 12.8 335 16.1 102220 77
2009-06-24 07:48:09 51°20.117 2°47.179 13.1 335 16.2 102220 76
2009-06-24 07:48:14 51°20.129 2°47.189 13 339 16.2 102220 76
2009-06-24 07:48:19 51°20.14 2°47.199 11.8 337 16.2 102230 77
2009-06-24 07:48:24 51°20.152 2°47.207 13.9 337 16.2 102230 77
2009-06-24 07:48:29 51°20.164 2°47.216 13.7 338 16.3 102230 77
2009-06-24 07:48:35 51°20.178 2°47.227 14.4 339 16.3 102230 77
2009-06-24 07:48:39 51°20.188 2°47.234 12.3 338 16.2 102230 77
2009-06-24 07:48:44 51°20.2 2°47.243 11.7 340 16.2 102230 77
2009-06-24 07:48:49 51°20.213 2°47.25 12.7 339 16.2 102230 76
2009-06-24 07:48:55 51°20.228 2°47.26 12.6 338 16.2 102230 76
2009-06-24 07:48:59 51°20.238 2°47.265 12.9 339 16.3 102220 76
2009-06-24 07:49:04 51°20.251 2°47.272 13.9 338 16.3 102220 76
2009-06-24 07:49:10 51°20.266 2°47.281 12.1 338 16.3 102220 76
2009-06-24 07:49:14 51°20.276 2°47.286 12.5 339 16.3 102220 76
2009-06-24 07:49:19 51°20.289 2°47.293 12.4 338 16.3 102220 76
2009-06-24 07:49:24 51°20.302 2°47.301 13.3 338 16.3 102220 76
2009-06-24 07:49:29 51°20.315 2°47.307 12.9 339 16.3 102210 76
2009-06-24 07:49:35 51°20.33 2°47.316 13.9 339 16.3 102210 76
2009-06-24 07:49:39 51°20.341 2°47.32 12.3 340 16.3 102220 76
2009-06-24 07:49:44 51°20.354 2°47.327 11.9 339 16.3 102220 76
2009-06-24 07:49:48 51°20.364 2°47.331 12.9 339 16.3 102230 76
2009-06-24 07:49:54 51°20.38 2°47.337 13.9 340 16.3 102230 76
2009-06-24 07:50:00 51°20.396 2°47.344 13.2 340 16.3 102220 76
2009-06-24 07:50:04 51°20.407 2°47.348 13.9 338 16.3 102220 76
2009-06-24 07:50:08 51°20.418 2°47.352 13.5 339 16.3 102220 77
2009-06-24 07:50:14 51°20.434 2°47.358 12.5 338 16.3 102220 77
2009-06-24 07:50:20 51°20.45 2°47.364 12.4 339 16.3 102220 77
2009-06-24 07:50:24 51°20.461 2°47.368 11.7 337 16.3 102220 77
2009-06-24 07:50:29 51°20.474 2°47.374 14.2 338 16.3 102220 76
2009-06-24 07:50:35 51°20.49 2°47.38 14.3 339 16.3 102220 76
2009-06-24 07:50:39 51°20.501 2°47.384 13.5 340 16.3 102220 76
2009-06-24 07:50:44 51°20.514 2°47.389 13.7 341 16.3 102220 76
2009-06-24 07:50:48 51°20.524 2°47.393 15.2 340 16.3 102220 76
2009-06-24 07:50:54 51°20.54 2°47.399 12.5 339 16.3 102220 76
2009-06-24 07:50:59 51°20.553 2°47.405 13.2 338 16.3 102220 77
2009-06-24 07:51:04 51°20.566 2°47.41 12.5 338 16.3 102220 77
2009-06-24 07:51:10 51°20.582 2°47.415 13.2 340 16.3 102210 76
2009-06-24 07:51:14 51°20.593 2°47.419 12.2 341 16.3 102210 76
2009-06-24 07:51:19 51°20.606 2°47.424 12.6 341 16.3 102210 76
2009-06-24 07:51:24 51°20.619 2°47.428 11.8 340 16.3 102210 76
2009-06-24 07:51:28 51°20.63 2°47.431 11.7 342 16.3 102230 76
2009-06-24 07:51:35 51°20.649 2°47.437 12.6 340 16.3 102230 76
2009-06-24 07:51:39 51°20.66 2°47.44 13.1 342 16.3 102230 76
2009-06-24 07:51:44 51°20.673 2°47.443 11.9 342 16.3 102230 76
2009-06-24 07:51:48 51°20.684 2°47.444 12.7 341 16.3 102220 77
2009-06-24 07:51:55 51°20.703 2°47.447 12.6 345 16.3 102220 77
2009-06-24 07:52:00 51°20.718 2°47.447 12.2 345 16.3 102220 77
2009-06-24 07:52:04 51°20.729 2°47.447 13.4 346 16.3 102220 77
2009-06-24 07:52:08 51°20.74 2°47.448 11.6 347 16.3 102220 76
2009-06-24 07:52:14 51°20.757 2°47.446 13.1 345 16.3 102220 76
2009-06-24 07:52:20 51°20.775 2°47.444 13.2 345 16.3 102210 76
2009-06-24 07:52:24 51°20.786 2°47.443 12.5 345 16.3 102210 76
2009-06-24 07:52:28 51°20.798 2°47.441 10.4 345 16.3 102220 75
2009-06-24 07:52:34 51°20.815 2°47.439 13.8 346 16.3 102220 75
2009-06-24 07:52:40 51°20.832 2°47.434 13.2 346 16.3 102220 76
2009-06-24 07:52:44 51°20.844 2°47.432 11.7 349 16.3 102220 76
2009-06-24 07:52:48 51°20.855 2°47.428 12.6 349 16.3 102220 77
2009-06-24 07:52:54 51°20.872 2°47.422 12.3 351 16.3 102220 77
2009-06-24 07:52:59 51°20.887 2°47.417 12.4 351 16.3 102210 76
2009-06-24 07:53:04 51°20.901 2°47.411 11.4 349 16.3 102210 76
2009-06-24 07:53:10 51°20.919 2°47.404 11.2 349 16.2 102210 76
2009-06-24 07:53:14 51°20.931 2°47.4 12.9 351 16.2 102210 76
2009-06-24 07:53:19 51°20.945 2°47.394 11.4 350 16.2 102220 77
2009-06-24 07:53:24 51°20.96 2°47.387 12.5 348 16.2 102220 77
2009-06-24 07:53:30 51°20.977 2°47.378 12.5 348 16.2 102210 77
2009-06-24 07:53:34 51°20.989 2°47.372 12.8 348 16.2 102210 77
2009-06-24 07:53:39 51°21.003 2°47.363 11 351 16.2 102220 77
2009-06-24 07:53:44 51°21.018 2°47.355 13 351 16.2 102220 77
2009-06-24 07:53:50 51°21.035 2°47.344 12.8 353 16.2 102220 77
2009-06-24 07:53:55 51°21.049 2°47.335 12.3 353 16.2 102220 77
2009-06-24 07:53:59 51°21.06 2°47.328 13 351 16.2 102220 78
2009-06-24 07:54:04 51°21.074 2°47.32 12.6 352 16.2 102220 78
2009-06-24 07:54:08 51°21.086 2°47.313 11.9 354 16.2 102220 78
2009-06-24 07:54:15 51°21.105 2°47.3 10.5 351 16.2 102220 78
2009-06-24 07:54:20 51°21.12 2°47.291 11.3 350 16.1 102220 77
2009-06-24 07:54:24 51°21.131 2°47.284 10.8 350 16.1 102220 77
2009-06-24 07:54:28 51°21.142 2°47.276 10.9 351 16.1 102210 77
2009-06-24 07:54:34 51°21.159 2°47.265 11 351 16.1 102210 77
2009-06-24 07:54:40 51°21.175 2°47.253 13.2 352 16.1 102220 78
2009-06-24 07:54:44 51°21.187 2°47.245 12 351 16.1 102220 78
2009-06-24 07:54:48 51°21.198 2°47.237 11.7 352 16.2 102210 78
2009-06-24 07:54:54 51°21.215 2°47.225 12.2 350 16.2 102210 78
2009-06-24 07:55:00 51°21.232 2°47.213 11.1 349 16.2 102210 78
2009-06-24 07:55:04 51°21.243 2°47.205 12.4 351 16.2 102210 78
2009-06-24 07:55:08 51°21.255 2°47.197 12.2 352 16.1 102210 78
2009-06-24 07:55:14 51°21.271 2°47.184 10.6 351 16.1 102210 78
2009-06-24 07:55:19 51°21.286 2°47.174 11.9 351 16.1 102210 78
2009-06-24 07:55:24 51°21.3 2°47.163 11 352 16.1 102210 78
2009-06-24 07:55:30 51°21.316 2°47.15 12 351 16.1 102220 77
2009-06-24 07:55:34 51°21.327 2°47.14 12.3 353 16.1 102220 77
2009-06-24 07:55:39 51°21.341 2°47.128 12.2 355 16.1 102220 78
2009-06-24 07:55:44 51°21.355 2°47.116 10.9 354 16.1 102220 78
2009-06-24 07:55:50 51°21.372 2°47.1 11.9 356 16.1 102210 78
2009-06-24 07:55:54 51°21.383 2°47.09 11 351 16.1 102210 78
2009-06-24 07:55:59 51°21.396 2°47.076 11.3 355 16.1 102210 77
2009-06-24 07:56:04 51°21.41 2°47.063 9.5 358 16.1 102210 77
2009-06-24 07:56:10 51°21.425 2°47.044 10.9 357 16.1 102210 78
2009-06-24 07:56:15 51°21.438 2°47.029 10.3 355 16.1 102210 78
2009-06-24 07:56:20 51°21.45 2°47.013 9.8 358 16.1 102220 78
2009-06-24 07:56:24 51°21.46 2°46.999 10.8 356 16.1 102220 78
2009-06-24 07:56:29 51°21.473 2°46.983 9.9 356 16.1 102210 77
2009-06-24 07:56:35 51°21.487 2°46.961 9.8 358 16.1 102210 77
2009-06-24 07:56:39 51°21.497 2°46.948 10.7 356 16.1 102220 77
2009-06-24 07:56:44 51°21.508 2°46.929 9.4 358 16.1 102220 77
2009-06-24 07:56:48 51°21.518 2°46.915 10.1 355 16.1 102220 79
2009-06-24 07:56:54 51°21.532 2°46.893 11.7 358 16.1 102220 79
2009-06-24 07:57:00 51°21.547 2°46.871 10.5 359 16.1 102210 78
2009-06-24 07:57:04 51°21.556 2°46.856 10.2 360 16.1 102210 78
2009-06-24 07:57:08 51°21.566 2°46.841 10.5 360 16.1 102230 79
2009-06-24 07:57:14 51°21.58 2°46.819 9.4 358 16.1 102230 79
2009-06-24 07:57:19 51°21.592 2°46.8 11.9 358 16.1 102220 78
2009-06-24 07:57:24 51°21.604 2°46.782 9.5 358 16.1 102220 78
2009-06-24 07:57:28 51°21.613 2°46.767 11 359 16.1 102220 79
2009-06-24 07:57:34 51°21.627 2°46.745 10.4 358 16.1 102220 79
2009-06-24 07:57:39 51°21.638 2°46.725 11.3 358 16.1 102230 79
2009-06-24 07:57:44 51°21.65 2°46.707 10.9 359 16.1 102230 79
2009-06-24 07:57:50 51°21.663 2°46.685 8.9 358 16.1 102220 78
2009-06-24 07:57:54 51°21.672 2°46.67 10.7 358 16.1 102220 78
2009-06-24 07:57:59 51°21.684 2°46.653 10.6 1 16 102220 79
2009-06-24 07:58:04 51°21.696 2°46.634 10.3 2 16 102220 79
2009-06-24 07:58:10 51°21.709 2°46.611 10.2 -999 16 102230 79
2009-06-24 07:58:14 51°21.719 2°46.596 10.6 1 16 102230 79
2009-06-24 07:58:19 51°21.73 2°46.577 9 3 16 102230 78
2009-06-24 07:58:24 51°21.741 2°46.556 8.7 1 16 102230 78
2009-06-24 07:58:28 51°21.75 2°46.54 8.4 3 16 102230 79
2009-06-24 07:58:35 51°21.765 2°46.512 9.4 360 16 102230 79
2009-06-24 07:58:39 51°21.774 2°46.495 9.3 2 16 102220 78
2009-06-24 07:58:44 51°21.785 2°46.475 9.2 2 16 102220 78
2009-06-24 07:58:48 51°21.793 2°46.458 9 4 16 102220 79
2009-06-24 07:58:55 51°21.808 2°46.43 8.4 3 16 102220 79
2009-06-24 07:59:00 51°21.819 2°46.409 9.8 1 16 102230 79
2009-06-24 07:59:04 51°21.828 2°46.394 10.7 2 16 102230 79
2009-06-24 07:59:08 51°21.836 2°46.378 9 360 16 102230 80
2009-06-24 07:59:14 51°21.85 2°46.354 9 2 16 102230 80
2009-06-24 07:59:20 51°21.863 2°46.332 8.6 4 16 102230 80
2009-06-24 07:59:24 51°21.872 2°46.316 9.7 359 16 102230 80
2009-06-24 07:59:28 51°21.881 2°46.301 8.9 2 16 102220 80
2009-06-24 07:59:34 51°21.895 2°46.278 8.9 4 16 102220 80
2009-06-24 07:59:39 51°21.906 2°46.258 9.1 358 16 102220 79
2009-06-24 07:59:44 51°21.918 2°46.239 10.1 358 16 102220 79
2009-06-24 07:59:48 51°21.926 2°46.224 9.8 1 16 102230 79
2009-06-24 07:59:54 51°21.94 2°46.201 10.5 359 16 102230 79
2009-06-24 07:59:59 51°21.951 2°46.182 9.1 357 16 102230 79
2009-06-24 08:00:04 51°21.963 2°46.163 9 358 16 102230 79
2009-06-24 08:00:10 51°21.977 2°46.14 10.9 359 16 102230 80
2009-06-24 08:00:14 51°21.986 2°46.125 11 358 16 102230 80
2009-06-24 08:00:19 51°21.997 2°46.106 9.9 358 16 102220 80
2009-06-24 08:00:24 51°22.009 2°46.087 10.2 358 16 102220 80
2009-06-24 08:00:30 51°22.023 2°46.065 9.5 359 16 102220 80
2009-06-24 08:00:34 51°22.032 2°46.05 10 359 16 102220 80
2009-06-24 08:00:39 51°22.043 2°46.031 10.6 360 16 102210 80
2009-06-24 08:00:44 51°22.054 2°46.014 11.9 359 16 102210 80
2009-06-24 08:00:48 51°22.062 2°45.998 9.9 1 16 102230 79
2009-06-24 08:00:55 51°22.078 2°45.974 9.3 358 16 102230 79
2009-06-24 08:01:00 51°22.088 2°45.955 10.5 -999 16 102230 81
2009-06-24 08:01:04 51°22.098 2°45.941 10.1 359 16 102230 81
2009-06-24 08:01:08 51°22.106 2°45.926 9.9 1 16 102210 80
2009-06-24 08:01:14 51°22.12 2°45.906 10.2 360 16 102210 80
2009-06-24 08:01:20 51°22.132 2°45.882 10 360 16 102230 80
2009-06-24 08:01:24 51°22.141 2°45.869 10.3 2 16 102230 80
2009-06-24 08:01:28 51°22.15 2°45.854 9.4 360 16 102210 79
2009-06-24 08:01:34 51°22.164 2°45.833 9.5 -999 16 102210 79
2009-06-24 08:01:40 51°22.176 2°45.81 9.3 357 16 102210 79
2009-06-24 08:01:44 51°22.185 2°45.796 9.2 359 16 102210 79
2009-06-24 08:01:48 51°22.194 2°45.781 9.8 359 16 102210 79
2009-06-24 08:01:54 51°22.207 2°45.759 8.1 1 16 102210 79
2009-06-24 08:01:59 51°22.218 2°45.742 9.2 358 16 102220 80
2009-06-24 08:02:04 51°22.229 2°45.723 12 1 16 102220 80
2009-06-24 08:02:10 51°22.242 2°45.702 11.2 358 16 102230 79
2009-06-24 08:02:14 51°22.25 2°45.687 9.9 3 16 102230 79
2009-06-24 08:02:19 51°22.262 2°45.669 10.6 2 16 102220 80
2009-06-24 08:02:24 51°22.272 2°45.65 10.6 2 16 102220 80
2009-06-24 08:02:30 51°22.286 2°45.63 9.2 -999 16 102220 80
2009-06-24 08:02:34 51°22.294 2°45.614 8.6 1 16 102220 80
2009-06-24 08:02:39 51°22.305 2°45.597 9.2 358 16 102220 80
2009-06-24 08:02:44 51°22.316 2°45.578 10.7 358 16 102220 80
2009-06-24 08:02:48 51°22.325 2°45.564 10.5 2 16 102220 80
2009-06-24 08:02:55 51°22.34 2°45.538 10.8 359 16 102220 80
2009-06-24 08:02:59 51°22.349 2°45.524 10.9 360 16 102220 79
2009-06-24 08:03:04 51°22.36 2°45.506 11.4 359 16 102220 79
2009-06-24 08:03:08 51°22.369 2°45.491 10.7 1 16 102220 80
2009-06-24 08:03:15 51°22.384 2°45.465 10.6 3 16 102220 80
2009-06-24 08:03:20 51°22.395 2°45.446 9 2 16 102220 80
2009-06-24 08:03:24 51°22.404 2°45.431 9.9 1 16 102220 80
2009-06-24 08:03:28 51°22.413 2°45.418 9.7 1 16 102220 79
2009-06-24 08:03:34 51°22.426 2°45.395 10.4 1 16 102220 79
2009-06-24 08:03:40 51°22.44 2°45.374 9 2 16 102220 78
2009-06-24 08:03:44 51°22.449 2°45.359 10.3 1 16 102220 78
2009-06-24 08:03:48 51°22.457 2°45.344 10.9 -999 16 102220 79
2009-06-24 08:03:54 51°22.47 2°45.321 10.7 359 16 102220 79
2009-06-24 08:04:00 51°22.483 2°45.299 10 359 16 102220 80
2009-06-24 08:04:04 51°22.491 2°45.284 9.6 3 16 102220 80
2009-06-24 08:04:08 51°22.5 2°45.27 9.5 3 16 102220 78
2009-06-24 08:04:14 51°22.512 2°45.246 8.6 2 16 102220 78
2009-06-24 08:04:19 51°22.524 2°45.23 10.7 1 16 102230 79
2009-06-24 08:04:24 51°22.534 2°45.21 11.1 -999 16 102230 79
2009-06-24 08:04:30 51°22.547 2°45.189 10.3 2 16 102230 78
2009-06-24 08:04:34 51°22.555 2°45.174 10.8 359 16 102230 78
2009-06-24 08:04:39 51°22.566 2°45.155 10 359 16 102230 79
2009-06-24 08:04:44 51°22.577 2°45.137 9.3 1 16 102230 79
2009-06-24 08:04:50 51°22.589 2°45.114 10.2 356 16 102220 79
2009-06-24 08:04:54 51°22.598 2°45.1 11.2 359 16 102220 79
2009-06-24 08:04:59 51°22.608 2°45.081 10.3 359 16 102220 79
2009-06-24 08:05:04 51°22.618 2°45.063 9.8 4 16 102220 79
2009-06-24 08:05:08 51°22.627 2°45.048 10.1 -999 16 102200 80
2009-06-24 08:05:15 51°22.641 2°45.023 9.4 2 16 102200 80
2009-06-24 08:05:19 51°22.65 2°45.008 10.2 2 16 102230 79
2009-06-24 08:05:24 51°22.661 2°44.99 9.7 2 16 102230 79
2009-06-24 08:05:28 51°22.669 2°44.975 10.2 2 16 102220 79
2009-06-24 08:05:35 51°22.685 2°44.951 9.8 -999 16 102220 79
2009-06-24 08:05:40 51°22.695 2°44.931 9.2 4 16 102220 79
2009-06-24 08:05:44 51°22.705 2°44.918 9.3 357 16 102220 79
2009-06-24 08:05:48 51°22.714 2°44.903 9.9 357 16 102220 78
2009-06-24 08:05:54 51°22.728 2°44.882 11.2 359 16 102220 78
2009-06-24 08:06:00 51°22.741 2°44.86 10.7 2 16 102220 78
2009-06-24 08:06:04 51°22.75 2°44.845 10.1 1 16 102220 78
2009-06-24 08:06:08 51°22.759 2°44.832 10.8 360 16 102220 78
2009-06-24 08:06:14 51°22.772 2°44.809 9.9 3 16 102220 78
2009-06-24 08:06:19 51°22.783 2°44.791 10.5 4 16 102210 79
2009-06-24 08:06:24 51°22.794 2°44.772 10 1 16 102210 79
2009-06-24 08:06:28 51°22.803 2°44.757 10.3 1 16 102230 78
2009-06-24 08:06:34 51°22.816 2°44.735 9.7 3 16 102230 78
2009-06-24 08:06:39 51°22.827 2°44.716 8.5 4 16 102220 78
2009-06-24 08:06:44 51°22.839 2°44.697 8.8 3 16 102220 78
2009-06-24 08:06:50 51°22.852 2°44.675 8.6 3 16 102220 78
2009-06-24 08:06:54 51°22.861 2°44.66 9 6 16 102220 78
2009-06-24 08:06:59 51°22.872 2°44.64 8.7 2 16 102220 78
2009-06-24 08:07:04 51°22.884 2°44.622 9.9 2 16 102220 78
2009-06-24 08:07:10 51°22.897 2°44.599 9.6 -999 16 102220 78
2009-06-24 08:07:14 51°22.906 2°44.584 9.6 358 16 102220 78
2009-06-24 08:07:19 51°22.917 2°44.565 10.9 360 16 102210 79
2009-06-24 08:07:24 51°22.929 2°44.545 10.3 2 16 102210 79
2009-06-24 08:07:28 51°22.938 2°44.53 9.1 359 16 102220 79
2009-06-24 08:07:35 51°22.953 2°44.503 10.2 357 16 102220 79
2009-06-24 08:07:40 51°22.965 2°44.484 9.8 359 16 102230 79